{"data":{"norad_id":60947,"intl_designator":"2024-156C","name":"YAOGAN-43 02C","alt_names":[],"object_type":"PAYLOAD","status":"ACTIVE","operator":null,"country":"PRC","launch_date":"2024-09-03","launch_site_code":"XICLF","launch_vehicle":null,"mission":null,"orbit_class":"UNKNOWN","rcs_meters":null,"size_class":null,"mass_kg":null,"dimensions":null,"purposes":[],"wikipedia_slug":null,"has_3d_model":false,"image_url":null,"decayed_at":null,"tle_current":{"epoch":"2026-05-24T23:21:08.574624Z","epoch_age_seconds":70587,"freshness":"FRESH","line1":"1 60947U 24156C   26144.97301591  .00006782  00000+0  28260-3 0  9999","line2":"2 60947  34.9989 344.1238 0003608 186.8840 173.1826 15.23020575 95908","mean_motion":15.23020575,"eccentricity":0.0003608,"inclination_deg":34.9989,"raan_deg":344.1238,"arg_perigee_deg":186.884,"mean_anomaly_deg":173.1826,"bstar":0.0002826,"rev_number":9590,"period_min":94.548952498557,"perigee_km":494.25524875446,"apogee_km":499.21615689682,"semimajor_km":6874.8727028256,"source":"CELESTRAK","updated_at":"2026-05-25T13:38:02.266701Z"}}}